Regional Weather Roundup
Issued by NWS Goodland, KS

Home | Current Version | Previous Version | Text Only | Print | Product List | Glossary Off
Versions: 1 2 3 4 5 6 7 8 9 10 11 12 13 14 15 16 17 18 19 20 21 22 23 24 25 26 27 28 29 30 31 32 33 34 35 36 37 38 39 40 41 42 43 44 45 46 47 48 49 50

000
ASUS43 KGLD 251059
RWRGLD

GOODLAND FORECAST AREA HOURLY WEATHER ROUNDUP
NATIONAL WEATHER SERVICE GOODLAND KS
500 AM MDT SAT APR 25 2015

...OFFICIAL OBSERVATIONS...

CITY           SKY/WX    TMP DP  RH WIND       PRES   REMARKS
GOODLAND KS    MOCLDY    45  41  86 W10       29.64R
HILL CITY KS   CLOUDY    52  48  86 NW9       29.54R
IMPERIAL NEB   PTCLDY    44  40  85 NW7       29.63R
MCCOOK NEB     CLOUDY    50  46  86 NW10      29.58R
AKRON CO       CLOUDY    40  36  86 NW9       29.69R
BURLINGTON CO  PTCLDY    43  37  79 W13       29.67R
LIMON CO       CLEAR     34  30  85 N3        29.74R
$$

...UNOFFICIAL OBSERVATIONS...

CITY           SKY/WX    TMP DP  RH WIND       PRES   REMARKS
COLBY KS       CLEAR     48  46  93 W14       29.60S
GOVE KS          N/A     50  32  50 MISG        N/A
LENORA KS        N/A     50  32  50 MISG        N/A
NORTON KS      CLEAR     48  45  87 NW12      29.54S
SHARON SPRINGS   N/A     44  40  87 CALM        N/A
TRIBUNE KS     PTCLDY    46  45  93 W10       29.67F
KIT CARSON CO    N/A     41  37  84 MISG        N/A
YUMA CO          N/A     43  38  82 W10         N/A
$$


USA.gov is the U.S. government's official web portal to all federal, state and local government web resources and services.